DW1039 Weather Reports


time (UTC)temp
C
wind
direction
speed
KPH
gust
KPH
rain 1hr
cm
rain 24hr
cm
rain mn
cm
humidity
%
barometer
mb
20260506220808 14 19 1.6 4.8 0.00 2.31 1.27 57 1014.0
20260506175806 15 339 3.2 9.7 0.00 2.72 1.27 56 1013.2
20260506174806 15 345 4.8 12.9 0.00 2.72 1.27 57 1013.5
20260506133804 9 23 4.8 9.7 0.00 2.72 1.27 83 1012.6
20260506132804 8 13 3.2 9.7 0.00 2.72 1.27 83 1012.5
20260506131804 8 345 4.8 8.0 0.00 2.72 1.27 84 1012.1
20260506130804 8 298 1.6 6.4 0.00 2.72 1.27 84 1012.1
20260506125803 8 314 4.8 4.8 0.00 2.72 1.27 86 1012.2
20260506124803 8 84 0.0 6.4 0.00 2.72 1.27 86 1011.9
20260506123803 8 23 3.2 6.4 0.00 2.72 1.27 87 1011.8
20260506122803 7 40 0.0 4.8 0.00 2.72 1.27 88 1011.7
20260506121803 7 67 0.0 4.8 0.00 2.72 1.27 89 1011.5
20260506050821 9 324 3.2 12.9 0.56 2.31 0.64 95 1007.5
20260506004759 15 221 0.0 0.0 0.15 0.89 0.91 94 1007.2
20260505230818 16 161 0.0 6.4 0.05 0.69 0.69 93 1006.7
20260505225758 16 187 4.8 6.4 0.03 0.66 0.66 93 1006.7
20260505224758 16 241 6.4 9.7 0.03 0.66 0.66 93 1007.0
20260505223758 16 206 0.0 14.5 0.08 0.66 0.66 93 1007.1
20260505222758 16 209 6.4 8.0 0.08 0.66 0.66 93 1007.2
20260505221758 16 210 1.6 16.1 0.08 0.66 0.66 93 1007.2